Вернуться в каталог

CZ-7A R/B

АктивенHEO
NORAD 67303·ROCKET BODY·🇨🇳 China

Запущен Dec 30, 2025 с Wenchang Space Launch Site

Loading…

Ближайшие Пролёты (ближайшие 24 часа)

TLE

СвежийSource: Space-Track

Эпоха: Sep 14, 2026, 13:37 UTC

1 67303U 25315B   26257.56767792  .00066862  10396-5  23477-2 0  9993
2 67303  19.7842 347.0149 7099150  26.1948 356.6900  2.55554094  6454

Отслеживайте CZ-7A R/B в реальном времени с AllMySat

Download on the App Store